Location: *
(46.1200°N, 11.2700°E)
Time: 19:42:09
(UTC+00:00)

ERS-2 - Pass Details

Date: 02 March 2021
Orbit: 492 x 496 km, 98.6° (Epoch: 19 April)

Event Time Altitude Azimuth Distance (km) Brightness Sun altitude
Rises 18:43:05 0° 6° (N) 2,595 5.8 -18.1°
Reaches altitude 10° 18:45:16 10° 358° (N) 1,707 5.0 -18.5°
Maximum altitude 18:48:38 36° 291° (WNW) 810 3.8 -19.1°
Drops below altitude 10° 18:52:00 10° 224° (SW) 1,696 5.2 -19.6°
Sets 18:54:10 0° 215° (SW) 2,574 6.1 -20.0°
